Location: Hermaringen
(48.5952°N, 10.2585°E)
Time: 06:06:42
(UTC+00:00)

Transit 2A - Pass Details

Date: 20 February 2026
Orbit: 590 x 954 km, 66.7° (Epoch: 14 March)

Event Time Altitude Azimuth Distance (km) Brightness Sun altitude
Rises 18:58:34 0° 325° (NW) 3,603 10.1 -22.2°
Reaches altitude 10° 19:01:17 10° 330° (NNW) 2,625 9.2 -22.6°
Maximum altitude 19:07:13 50° 46° (NE) 1,101 6.5 -23.6°
Enters shadow 19:07:44 49° 63° (ENE) 1,114 6.4 -23.7°
